OBJECT AE, 67276

Orbit data source: Space-Track

You're viewing an Uncataloged Satellite

Recently launched and/or uncataloged satellites may have evolving metadata. Metadata may include but not limited to: Owner, Maufacturer, Bus, Motor, and Mission.

OBJECT AE, 67276 is a satellite in SSO that was launched on Sun, 28 Dec 2025 UTC via a SOYUZ-2-1B launch vehicle from the Vostochny Cosmodrome (VOSTO). Unknown objects in Earth's orbit typically refer to objects detected orbiting the Earth but have not yet been identified or cataloged. These objects could be anything from previously untracked satellites, spent rocket stages, debris from satellite collisions, or even natural meteoroids temporarily captured by Earth's gravity.

Loading next visibility...
Identifier
67276, 2025-313AE
Orbit
SSO
Country
Flag of TBDTBD
Related business
None
Manufacturer
Unknown
Mission
Operational Commercial Communications
Bus & Motor
Unknown
Mass
Unknown
Launch date (UTC)
2025-12-28 (6 months ago)
Launch vehicle
SOYUZ-2-1B
Launch site
Vostochny Cosmodrome (VOSTO)
Object type
Unknown
Shape & HBR
Box, 0.1 m
Radar Cross Section
0.035 m², Medium (>0.1 m² and < 1m²)

Expand to show TLE details & history
Last TLE update: 1 day ago

TLE from 1 day ago
0 OBJECT AE
1 67276U 25313AE  26170.71684806  .00005037  00000-0  21876-3 0  9990
2 67276  97.3899 245.2118 0013487   5.1065 355.0307 15.22677392 26339
Epoch: 2026-06-19T17:12Z
TLE epoch observation values (Epoch: 2026-06-19T17:12:15.672Z)
Latitude
0.00001°
Longitude
79.20467°
Altitude
491.622 km
Speed
7.624 km/s
True Right ascension
16h 20m 50s
True Declination
0° 00' 00"
Sunlit
Object was in full shadow at epoch
Visualization orbit readout
Latitude
Unknown
Longitude
Unknown
Altitude
Unknown
Speed
Unknown
Apparent Right ascension
Unknown
Apparent Declination
Unknown
Sunlit
N/A
Visualization observer readout
Local Sidereal Time
07:21:00
Azimuth
Unknown
Elevation
Unknown
Doppler factor
Unknown
Orbital elements
Apogee altitude
504 km
Perigee altitude
485.461 km
Semi-major axis
6,872.867 km
Eccentricity
0.00135
Inclination
97.3899°
RAAN
245.2118°
Arg. of periapsis
5.1065°
True anomaly
355.01729°
Mean anomaly
355.0307°
Eccentric anomaly
355.024°
Mean motion
3.80922 °/min
Orbital period
94.51 mins
BSTAR
0.00021876
Loading maneuver chart data...
Computing Atmospheric mass density...
Loading historical data...
Loading historical data...
Loading historical data...
Loading historical data...
Loading historical data...
Loading historical data...
Loading historical data...

Documentation

Showing up to 5 results
|